Weather History for Jacksonville, IL

Change the Weather History Date:

Monday, December 9, 2013

  Actual Average (KSPI) Record (KSPI)
Temperature  
Mean Temperature 20 °F 32 °F  
Max Temperature 25 °F 40 °F 69 °F (1918)
Min Temperature 12 °F 24 °F -3 °F (1917)
Degree Days  
Heating Degree Days 46 33  
Month to date heating degree days 282  
Since 1 July heating degree days 1350  
Cooling Degree Days 0 0  
Month to date cooling degree days 0  
Year to date cooling degree days 1122  
Moisture  
Dew Point 13 °F    
Average Humidity 74    
Maximum Humidity 86    
Minimum Humidity 61    
Precipitation  
Precipitation 0.00 in 0.09 in 0.89 in (2007)
Month to date precipitation 0.84  
Year to date precipitation 35.75  
Snow  
Snow 0.00 in 0.20 in 2.80 in (1997)
Month to date snowfall 1.2  
Since 1 July snowfall 1.8  
Snow Depth -    
Sea Level Pressure  
Sea Level Pressure 30.23 in    
Wind  
Wind Speed 11 mph (West)    
Max Wind Speed 18 mph    
Max Gust Speed 25 mph    
Visibility 10 miles    
Events      
T = Trace of Precipitation, MM = Missing Value Source: NWS Daily Summary

Daily Weather History Graph

Daily Weather History Graph

Search for Another Location

Airport:

Trip Planner

Search our weather history database for the weather conditions in past years. The results will help you decide how hot, cold, wet, or windy it might be!

Date:

Astronomy

Dec. 09, 2013 Rise Set
Actual Time 7:10 AM CST 4:36 PM CST
Civil Twilight 6:40 AM CST 5:06 PM CST
Nautical Twilight 6:06 AM CST 5:40 PM CST
Astronomical Twilight 5:33 AM CST 6:13 PM CST
Moon 12:04 PM CST (12/9) No Moon Set
Length of Visible Light 10h 26m
Length of Day
9h 25m
Waxing Crescent, 51% of the Moon is Illuminated
Dec 9
Waxing Crescent
Dec 17
Full
Dec 25
Last Quarter
Jan 1
New
Jan 7
First Quarter

Hourly Weather History & Observations

Time (CST) Temp. Windchill Dew Point Humidity Pressure Visibility Wind Dir Wind Speed Gust Speed Precip Events Conditions
12:15 AM 25.7 °F 15.1 °F 22.1 °F 86% 30.06 in 7.0 mi WSW 11.5 mph - N/A   Overcast
12:35 AM 25.7 °F 15.7 °F 22.1 °F 86% 30.06 in 7.0 mi West 10.4 mph - N/A   Overcast
12:55 AM 25.5 °F 16.2 °F 21.9 °F 86% 30.06 in 7.0 mi West 9.2 mph - N/A   Overcast
1:15 AM 25.5 °F 15.5 °F 21.7 °F 86% 30.07 in 7.0 mi West 10.4 mph 17.3 mph N/A   Overcast
1:35 AM 25.5 °F 14.3 °F 21.9 °F 86% 30.08 in 7.0 mi West 12.7 mph - N/A   Overcast
1:55 AM 25.3 °F 13.6 °F 21.6 °F 86% 30.08 in 7.0 mi West 13.8 mph 18.4 mph N/A   Overcast
2:15 AM 25.2 °F 13.3 °F 21.0 °F 84% 30.09 in 10.0 mi West 13.8 mph 23.0 mph N/A   Overcast
2:35 AM 24.8 °F 12.4 °F 20.1 °F 82% 30.10 in 10.0 mi West 15.0 mph - N/A   Overcast
2:55 AM 24.6 °F 10.9 °F 19.9 °F 82% 30.10 in 10.0 mi West 18.4 mph - N/A   Overcast
3:15 AM 24.1 °F 11.0 °F 18.9 °F 80% 30.12 in 10.0 mi West 16.1 mph 25.3 mph N/A   Overcast
3:35 AM 23.9 °F 10.3 °F 18.7 °F 80% 30.13 in 10.0 mi West 17.3 mph 21.9 mph N/A   Overcast
3:55 AM 23.5 °F 9.9 °F 18.3 °F 80% 30.13 in 10.0 mi West 17.3 mph 23.0 mph N/A   Overcast
4:35 AM 20.3 °F 7.7 °F 14.5 °F 78% 30.13 in 10.0 mi West 12.7 mph 19.6 mph N/A   Clear
4:55 AM 19.2 °F 7.7 °F 14.2 °F 81% 30.15 in 10.0 mi West 10.4 mph - N/A   Clear
5:15 AM 18.1 °F 8.9 °F 13.6 °F 83% 30.16 in 10.0 mi West 6.9 mph - N/A   Clear
5:35 AM 18.5 °F 7.5 °F 14.0 °F 83% 30.16 in 10.0 mi West 9.2 mph - N/A   Clear
5:55 AM 18.3 °F 5.2 °F 14.4 °F 85% 30.17 in 10.0 mi West 12.7 mph - N/A   Scattered Clouds
6:15 AM 18.7 °F 5.7 °F 14.9 °F 85% 30.19 in 10.0 mi West 12.7 mph - N/A   Scattered Clouds
6:35 AM 18.3 °F 7.3 °F 14.2 °F 84% 30.18 in 10.0 mi West 9.2 mph - N/A   Clear
6:55 AM 18.1 °F 7.1 °F 14.0 °F 84% 30.19 in 10.0 mi West 9.2 mph - N/A   Mostly Cloudy
7:15 AM 17.4 °F 5.4 °F 13.3 °F 84% 30.20 in 10.0 mi West 10.4 mph - N/A   Scattered Clouds
7:35 AM 16.7 °F 5.3 °F 12.9 °F 85% 30.20 in 10.0 mi WNW 9.2 mph - N/A   Scattered Clouds
7:55 AM 16.7 °F 5.3 °F 12.9 °F 85% 30.19 in 10.0 mi WNW 9.2 mph - N/A   Clear
8:15 AM 16.3 °F 4.1 °F 12.2 °F 84% 30.19 in 10.0 mi WNW 10.4 mph - N/A   Clear
8:35 AM 17.1 °F 5.8 °F 12.9 °F 84% 30.20 in 10.0 mi WNW 9.2 mph - N/A   Clear
8:55 AM 17.8 °F 4.6 °F 13.3 °F 83% 30.23 in 10.0 mi West 12.7 mph - N/A   Clear
9:15 AM 18.5 °F 4.3 °F 13.6 °F 81% 30.25 in 10.0 mi West 15.0 mph - N/A   Clear
9:35 AM 19.2 °F 7.0 °F 13.5 °F 78% 30.26 in 10.0 mi West 11.5 mph - N/A   Scattered Clouds
9:55 AM 19.8 °F 9.1 °F 13.1 °F 75% 30.28 in 10.0 mi West 9.2 mph - N/A   Clear
10:15 AM 20.8 °F 9.7 °F 13.6 °F 74% 30.30 in 10.0 mi West 10.4 mph - N/A   Clear
10:35 AM 21.2 °F 8.9 °F 12.7 °F 70% 30.31 in 10.0 mi West 12.7 mph - N/A   Clear
10:55 AM 21.9 °F 9.2 °F 13.3 °F 69% 30.31 in 10.0 mi West 13.8 mph 18.4 mph N/A   Scattered Clouds
11:15 AM 22.5 °F 9.9 °F 13.5 °F 68% 30.30 in 10.0 mi West 13.8 mph - N/A   Clear
11:35 AM 23.7 °F 12.1 °F 14.4 °F 67% 30.30 in 10.0 mi WSW 12.7 mph 19.6 mph N/A   Clear
11:55 AM 23.4 °F 11.6 °F 12.4 °F 63% 30.29 in 10.0 mi West 12.7 mph 18.4 mph N/A   Clear
12:15 PM 23.7 °F 11.0 °F 13.8 °F 66% 30.29 in 10.0 mi West 15.0 mph 21.9 mph N/A   Clear
12:35 PM 24.3 °F 12.7 °F 14.0 °F 65% 30.28 in 10.0 mi West 12.7 mph 21.9 mph N/A   Clear
12:55 PM 24.3 °F 12.2 °F 12.4 °F 61% 30.27 in 10.0 mi WSW 13.8 mph - N/A   Clear
1:15 PM 24.4 °F 11.5 °F 13.8 °F 64% 30.26 in 10.0 mi West 16.1 mph 21.9 mph N/A   Clear
1:35 PM 24.3 °F 10.8 °F 12.7 °F 62% 30.26 in 10.0 mi West 17.3 mph 23.0 mph N/A   Clear
1:55 PM 23.5 °F 10.3 °F 12.0 °F 61% 30.26 in 10.0 mi West 16.1 mph 23.0 mph N/A   Clear
2:15 PM 23.4 °F 10.1 °F 12.6 °F 63% 30.26 in 10.0 mi West 16.1 mph 21.9 mph N/A   Clear
2:35 PM 22.5 °F 9.4 °F 12.6 °F 66% 30.26 in 10.0 mi West 15.0 mph - N/A   Clear
2:55 PM 22.1 °F 8.5 °F 12.6 °F 67% 30.26 in 10.0 mi WNW 16.1 mph - N/A   Clear
3:15 PM 22.1 °F 10.6 °F 12.6 °F 67% 30.26 in 10.0 mi West 11.5 mph - N/A   Clear
3:35 PM 21.7 °F 11.5 °F 12.4 °F 67% 30.27 in 10.0 mi West 9.2 mph - N/A   Clear
3:55 PM 21.7 °F 10.8 °F 12.2 °F 67% 30.28 in 10.0 mi West 10.4 mph - N/A   Clear
4:15 PM 21.2 °F 10.1 °F 11.7 °F 67% 30.28 in 10.0 mi WNW 10.4 mph - N/A   Clear
4:35 PM 20.5 °F 10.0 °F 11.5 °F 68% 30.28 in 10.0 mi WNW 9.2 mph - N/A   Clear
4:55 PM 20.1 °F 9.5 °F 11.3 °F 69% 30.29 in 10.0 mi WNW 9.2 mph - N/A   Clear
5:15 PM 19.9 °F 8.6 °F 11.1 °F 69% 30.28 in 10.0 mi WNW 10.4 mph - N/A   Clear
5:35 PM 19.8 °F 9.1 °F 11.1 °F 69% 30.28 in 10.0 mi WNW 9.2 mph - N/A   Clear
5:55 PM 19.4 °F 9.5 °F 10.8 °F 69% 30.28 in 10.0 mi WNW 8.1 mph - N/A   Clear
6:15 PM 19.4 °F 11.5 °F 10.8 °F 69% 30.28 in 10.0 mi WNW 5.8 mph - N/A   Clear
6:35 PM 19.0 °F 9.0 °F 10.6 °F 70% 30.28 in 10.0 mi NW 8.1 mph - N/A   Clear
6:55 PM 18.9 °F 10.8 °F 10.0 °F 69% 30.29 in 10.0 mi WNW 5.8 mph - N/A   Clear
7:15 PM 18.5 °F 8.4 °F 9.5 °F 68% 30.29 in 10.0 mi WNW 8.1 mph - N/A   Scattered Clouds
7:35 PM 18.0 °F 8.7 °F 9.0 °F 68% 30.29 in 10.0 mi NW 6.9 mph - N/A   Scattered Clouds
7:55 PM 17.6 °F 8.2 °F 8.2 °F 67% 30.29 in 10.0 mi NW 6.9 mph - N/A   Scattered Clouds
8:15 PM 17.4 °F 7.1 °F 8.6 °F 68% 30.29 in 10.0 mi NW 8.1 mph - N/A   Scattered Clouds
8:35 PM 17.1 °F 8.7 °F 8.4 °F 69% 30.28 in 10.0 mi NW 5.8 mph - N/A   Clear
8:55 PM 16.7 °F 8.3 °F 8.4 °F 70% 30.29 in 10.0 mi NW 5.8 mph - N/A   Scattered Clouds
9:15 PM 16.2 °F 7.6 °F 7.5 °F 69% 30.28 in 10.0 mi NW 5.8 mph - N/A   Scattered Clouds
9:35 PM 15.6 °F 10.0 °F 7.5 °F 70% 30.28 in 10.0 mi NW 3.5 mph - N/A   Scattered Clouds
9:55 PM 15.8 °F 8.6 °F 7.7 °F 70% 30.27 in 10.0 mi NW 4.6 mph - N/A   Clear
10:15 PM 15.4 °F - 7.5 °F 71% 30.27 in 10.0 mi Calm Calm - N/A   Clear
10:35 PM 14.9 °F - 7.7 °F 73% 30.27 in 10.0 mi Calm Calm - N/A   Clear
10:55 PM 14.9 °F - 7.9 °F 74% 30.27 in 10.0 mi Calm Calm - N/A   Clear
11:15 PM 14.0 °F 8.2 °F 8.4 °F 78% 30.27 in 10.0 mi West 3.5 mph - N/A   Clear
11:35 PM 14.0 °F 8.2 °F 7.5 °F 75% 30.28 in 10.0 mi West 3.5 mph - N/A   Clear
11:55 PM 12.9 °F 6.9 °F 7.7 °F 80% 30.28 in 10.0 mi West 3.5 mph - N/A   Clear